Location: Antioch
(38.0049°N, 121.8058°W)
Time: 13:01:01
(UTC+00:00)

SL-4 R/B - Pass Details

Date: 11 February 2026
Orbit: 382 x 514 km, 51.6° (Epoch: 16 March)

Event Time Altitude Azimuth Distance (km) Brightness Sun altitude
Exits shadow 14:32:16 - 315° (NW) 2,062 4.4 -6.4°
Reaches altitude 10° 14:33:24 10° 319° (NW) 1,616 3.9 -6.2°
Maximum altitude 14:36:57 49° 35° (NE) 624 2.5 -5.5°
Drops below altitude 10° 14:40:40 10° 112° (ESE) 1,683 6.3 -4.8°
Sets 14:42:56 0° 118° (ESE) 2,582 7.5 -4.4°
